Location: Arthez
(43.0833°N, 0.2500°W)
Time: 02:54:20
(UTC+00:00)

NOSS 3-1 (A) - Pass Details

Date: 11 December 2023
Orbit: 665 x 1546 km, 63.4° (Epoch: 18 February)

Event Time Altitude Azimuth Distance (km) Brightness Sun altitude
Exits shadow 03:43:52 13° 24° (NNE) 2,365 5.7 -38.9°
Drops below altitude 10° 03:44:40 10° 27° (NNE) 2,645 6.0 -38.8°
Sets 03:47:40 0° 35° (NE) 3,743 7.0 -38.2°
